LZ3SV-3 Weather Reports


time (UTC)temp
C
wind
direction
speed
KPH
gust
KPH
rain 1hr
cm
rain 24hr
cm
rain mn
cm
humidity
%
barometer
mb
20260504021113 6 0.0 0.0 0.00 0.00 0.00 61 992.2
20260504020113 6 0.0 0.0 0.00 0.00 0.00 61 992.3
20260504015113 6 0.0 0.0 0.00 0.00 0.00 63 992.3
20260504014113 6 0.0 0.0 0.00 0.00 0.00 63 992.3
20260504013113 6 0.0 0.0 0.00 0.00 0.00 64 992.4
20260504012113 6 0.0 0.0 0.00 0.00 0.00 64 992.4
20260504010112 6 0.0 0.0 0.00 0.00 0.00 64 992.5
20260504005112 6 0.0 0.0 0.00 0.00 0.00 64 992.6
20260504004112 6 0.0 0.0 0.00 0.00 0.00 65 992.7
20260504003112 6 0.0 0.0 0.00 0.00 0.00 65 992.7
20260504002112 6 0.0 0.0 0.00 0.00 0.00 65 992.8
20260504001113 6 0.0 0.0 0.00 0.00 0.00 65 992.9
20260503235112 6 0.0 0.0 0.00 0.00 0.00 64 993.0
20260503234112 6 0.0 0.0 0.00 0.00 0.00 64 993.0
20260503233112 6 0.0 0.0 0.00 0.00 0.00 64 993.1
20260503232112 7 0.0 0.0 0.00 0.00 0.00 64 993.2
20260503231112 7 0.0 0.0 0.00 0.00 0.00 65 993.2
20260503230112 7 0.0 0.0 0.00 0.00 0.00 65 993.2
20260503224112 6 0.0 0.0 0.00 0.00 0.00 66 993.1
20260503223112 6 0.0 0.0 0.00 0.00 0.00 67 993.1
20260503222112 6 0.0 0.0 0.00 0.00 0.00 67 993.0
20260503220112 7 0.0 0.0 0.00 0.00 0.00 67 992.9
20260503215112 7 0.0 0.0 0.00 0.00 0.00 66 993.0
20260503214112 7 0.0 0.0 0.00 0.00 0.00 66 992.8
20260503212112 7 0.0 0.0 0.00 0.00 0.00 65 992.9
20260503211112 7 0.0 0.0 0.00 0.00 0.00 64 992.8
20260503210111 7 0.0 0.0 0.00 0.00 0.00 66 992.8
20260503205111 7 0.0 0.0 0.00 0.00 0.00 65 992.8
20260503204112 7 0.0 0.0 0.00 0.00 0.00 65 992.8
20260503203112 7 0.0 0.0 0.00 0.00 0.00 64 992.9
20260503201111 7 0.0 0.0 0.00 0.00 0.00 65 993.0
20260503200111 7 0.0 0.0 0.00 0.00 0.00 67 993.2
20260503195112 8 0.0 0.0 0.00 0.00 0.00 68 993.3
20260503194112 8 0.0 0.0 0.00 0.00 0.00 68 993.3
20260503192113 8 0.0 0.0 0.00 0.00 0.00 69 993.4
20260503184111 8 0.0 0.0 0.00 0.00 0.00 68 993.4
20260503183112 9 0.0 0.0 0.00 0.00 0.00 65 993.3
20260503182111 10 0.0 0.0 0.00 0.00 0.00 62 993.3
20260503181111 10 0.0 0.0 0.00 0.00 0.00 59 993.4
20260503175111 11 0.0 0.0 0.00 0.00 0.00 56 993.5
20260503174111 10 0.0 0.0 0.00 0.00 0.00 57 993.5
20260503173112 10 0.0 0.0 0.00 0.00 0.00 58 993.5
20260503172111 11 0.0 0.0 0.00 0.00 0.00 60 993.4
20260503171111 11 0.0 0.0 0.00 0.00 0.00 62 993.3
20260503160111 11 0.0 0.0 0.00 0.00 0.00 59 993.0
20260503150111 12 0.0 0.0 0.00 0.00 0.00 56 993.2
20260503140112 12 0.0 0.0 0.00 0.00 0.00 50 993.6
20260503131111 13 0.0 0.0 0.00 0.00 0.00 45 993.3
20260503130110 13 0.0 0.0 0.00 0.00 0.00 47 993.5
20260503120110 12 0.0 0.0 0.00 0.00 0.00 47 994.0
20260503110110 12 0.0 0.0 0.00 0.00 0.00 51 994.6
20260503100110 10 0.0 0.0 0.00 0.00 0.00 55 995.0
20260503090110 12 0.0 0.0 0.00 0.00 0.00 52 995.1
20260503080110 10 0.0 0.0 0.00 0.00 0.00 61 995.0
20260503072110 8 0.0 0.0 0.00 0.00 0.00 85 995.0
20260503071110 8 0.0 0.0 0.00 0.00 0.00 88 994.8
20260503070110 8 0.0 0.0 0.00 0.00 0.00 88 995.0
20260503054110 7 0.0 0.0 0.00 0.00 0.00 100 994.6
20260503053110 6 0.0 0.0 0.00 0.00 0.00 100 994.7
20260503052110 6 0.0 0.0 0.00 0.00 0.00 100 994.5
20260503050110 6 0.0 0.0 0.00 0.00 0.00 100 994.4
20260503044110 5 0.0 0.0 0.00 0.00 0.00 100 994.4
20260503042109 5 0.0 0.0 0.00 0.00 0.00 100 994.4
20260503041110 5 0.0 0.0 0.00 0.00 0.00 100 994.3
20260503040110 5 0.0 0.0 0.00 0.00 0.00 100 994.1
20260503035109 5 0.0 0.0 0.00 0.00 0.00 100 993.9
20260503033109 5 0.0 0.0 0.00 0.00 0.00 100 993.8
20260503032110 5 0.0 0.0 0.00 0.00 0.00 100 993.8
20260503031110 5 0.0 0.0 0.00 0.00 0.00 100 993.8
20260503025110 5 0.0 0.0 0.00 0.00 0.00 100 993.8
20260503024110 5 0.0 0.0 0.00 0.00 0.00 100 993.7
20260503023109 5 0.0 0.0 0.00 0.00 0.00 100 993.7
20260503022110 5 0.0 0.0 0.00 0.00 0.00 100 993.8